| time (UTC) | temp C | wind direction | speed KPH | gust KPH | rain 1hr cm | rain 24hr cm | rain mn cm | humidity % | barometer mb |
| 20260506103038 | 16 | 147 | 6.4 | 12.9 | 0.00 | 0.00 | 0.00 | 74 | 1011.9 |
| 20260506101536 | 16 | 167 | 6.4 | 16.1 | 0.00 | 0.00 | 0.00 | 74 | 1012.0 |
| 20260506100032 | 16 | 178 | 6.4 | 12.9 | 0.00 | 0.00 | 0.00 | 74 | 1012.0 |
| 20260506094539 | 16 | 155 | 6.4 | 16.1 | 0.00 | 0.00 | 0.00 | 74 | 1011.8 |
| 20260506093038 | 16 | 133 | 6.4 | 14.5 | 0.00 | 0.00 | 0.00 | 74 | 1012.0 |
| 20260506091537 | 16 | 155 | 4.8 | 16.1 | 0.00 | 0.00 | 0.00 | 74 | 1012.0 |
| 20260506090037 | 17 | 141 | 11.3 | 19.3 | 0.00 | 0.00 | 0.00 | 74 | 1012.0 |
| 20260506084540 | 17 | 143 | 9.7 | 22.5 | 0.00 | 0.00 | 0.00 | 74 | 1012.1 |
| 20260506083033 | 16 | 189 | 9.7 | 22.5 | 0.00 | 0.00 | 0.00 | 75 | 1012.4 |
| 20260506081541 | 17 | 157 | 9.7 | 19.3 | 0.00 | 0.00 | 0.00 | 75 | 1012.5 |
| 20260506073038 | 17 | 138 | 6.4 | 22.5 | 0.00 | 0.00 | 0.00 | 75 | 1012.4 |
| 20260506071536 | 17 | 143 | 9.7 | 20.9 | 0.00 | 0.00 | 0.00 | 74 | 1012.5 |
| 20260506061538 | 17 | 132 | 9.7 | 17.7 | 0.00 | 0.00 | 0.00 | 72 | 1012.7 |
| 20260506044544 | 18 | 126 | 9.7 | 27.4 | 0.00 | 0.00 | 0.00 | 69 | 1013.3 |
| 20260506043037 | 18 | 111 | 9.7 | 22.5 | 0.00 | 0.00 | 0.00 | 67 | 1013.1 |
| 20260506041536 | 19 | 111 | 14.5 | 27.4 | 0.00 | 0.00 | 0.00 | 65 | 1013.0 |
| 20260506040035 | 19 | 127 | 9.7 | 17.7 | 0.00 | 0.00 | 0.00 | 62 | 1013.0 |
| 20260506034533 | 19 | 147 | 11.3 | 25.7 | 0.00 | 0.00 | 0.00 | 59 | 1013.0 |
| 20260506033039 | 19 | 103 | 6.4 | 17.7 | 0.00 | 0.00 | 0.00 | 57 | 1013.0 |
| 20260506031538 | 19 | 138 | 4.8 | 12.9 | 0.00 | 0.00 | 0.00 | 56 | 1013.1 |
| 20260506030055 | 20 | 115 | 4.8 | 12.9 | 0.00 | 0.00 | 0.00 | 55 | 1013.2 |
| 20260506024547 | 20 | 113 | 4.8 | 12.9 | 0.00 | 0.00 | 0.00 | 54 | 1013.2 |
| 20260506023035 | 20 | 133 | 1.6 | 9.7 | 0.00 | 0.00 | 0.00 | 52 | 1013.3 |
| 20260506021537 | 20 | 125 | 3.2 | 11.3 | 0.00 | 0.00 | 0.00 | 50 | 1013.2 |
| 20260506020038 | 20 | 132 | 4.8 | 9.7 | 0.00 | 0.00 | 0.00 | 49 | 1013.1 |
| 20260506014552 | 21 | 121 | 3.2 | 11.3 | 0.00 | 0.00 | 0.00 | 47 | 1013.0 |
| 20260506013037 | 21 | 101 | 6.4 | 12.9 | 0.00 | 0.00 | 0.00 | 46 | 1013.0 |
| 20260506011538 | 22 | 145 | 4.8 | 14.5 | 0.00 | 0.00 | 0.00 | 44 | 1012.8 |
| 20260506010036 | 22 | 151 | 8.0 | 17.7 | 0.00 | 0.00 | 0.00 | 43 | 1012.5 |
| 20260506004547 | 22 | 144 | 6.4 | 14.5 | 0.00 | 0.00 | 0.00 | 42 | 1012.5 |
| 20260506003042 | 23 | 148 | 8.0 | 19.3 | 0.00 | 0.00 | 0.00 | 41 | 1012.3 |
| 20260506001537 | 23 | 190 | 9.7 | 20.9 | 0.00 | 0.00 | 0.00 | 41 | 1012.2 |
| 20260506000036 | 23 | 173 | 8.0 | 14.5 | 0.00 | 0.00 | 0.00 | 42 | 1012.3 |
| 20260505234536 | 23 | 130 | 6.4 | 17.7 | 0.00 | 0.00 | 0.00 | 42 | 1012.2 |
| 20260505233034 | 24 | 131 | 8.0 | 17.7 | 0.00 | 0.00 | 0.00 | 40 | 1011.8 |
| 20260505231534 | 25 | 173 | 8.0 | 17.7 | 0.00 | 0.00 | 0.00 | 39 | 1011.9 |
| 20260505230044 | 25 | 144 | 11.3 | 33.8 | 0.00 | 0.00 | 0.00 | 37 | 1011.9 |
| 20260505224538 | 25 | 148 | 11.3 | 27.4 | 0.00 | 0.00 | 0.00 | 36 | 1012.3 |
| 20260505223037 | 25 | 202 | 12.9 | 33.8 | 0.00 | 0.00 | 0.00 | 35 | 1012.1 |
| 20260505221535 | 26 | 182 | 12.9 | 29.0 | 0.00 | 0.00 | 0.00 | 34 | 1012.1 |
| 20260505220041 | 25 | 167 | 16.1 | 29.0 | 0.00 | 0.00 | 0.00 | 38 | 1012.1 |
| 20260505214538 | 26 | 138 | 9.7 | 29.0 | 0.00 | 0.00 | 0.00 | 38 | 1012.4 |
| 20260505213044 | 26 | 167 | 14.5 | 30.6 | 0.00 | 0.00 | 0.00 | 37 | 1012.3 |
| 20260505211536 | 26 | 156 | 14.5 | 32.2 | 0.00 | 0.00 | 0.00 | 36 | 1012.3 |
| 20260505210033 | 26 | 165 | 9.7 | 25.7 | 0.00 | 0.00 | 0.00 | 36 | 1012.3 |
| 20260505204534 | 25 | 153 | 12.9 | 33.8 | 0.00 | 0.00 | 0.00 | 36 | 1012.6 |
| 20260505203034 | 26 | 148 | 16.1 | 32.2 | 0.00 | 0.00 | 0.00 | 34 | 1012.6 |
| 20260505201537 | 26 | 186 | 14.5 | 35.4 | 0.00 | 0.00 | 0.00 | 33 | 1012.5 |
| 20260505200038 | 26 | 184 | 16.1 | 33.8 | 0.00 | 0.00 | 0.00 | 33 | 1012.8 |
| 20260505194534 | 26 | 176 | 16.1 | 25.7 | 0.00 | 0.00 | 0.00 | 34 | 1012.9 |
| 20260505193049 | 26 | 147 | 12.9 | 27.4 | 0.00 | 0.00 | 0.00 | 34 | 1013.1 |
| 20260505191539 | 26 | 142 | 12.9 | 30.6 | 0.00 | 0.00 | 0.00 | 35 | 1013.4 |
| 20260505190039 | 26 | 198 | 11.3 | 33.8 | 0.00 | 0.00 | 0.00 | 35 | 1013.6 |
| 20260505184537 | 26 | 171 | 16.1 | 29.0 | 0.00 | 0.00 | 0.00 | 34 | 1013.6 |
| 20260505183037 | 26 | 161 | 14.5 | 37.0 | 0.00 | 0.00 | 0.00 | 35 | 1013.8 |
| 20260505181535 | 26 | 152 | 14.5 | 29.0 | 0.00 | 0.00 | 0.00 | 36 | 1014.0 |
| 20260505180039 | 26 | 140 | 14.5 | 29.0 | 0.00 | 0.00 | 0.00 | 35 | 1014.4 |
| 20260505174539 | 26 | 157 | 9.7 | 25.7 | 0.00 | 0.00 | 0.00 | 36 | 1014.5 |
| 20260505173034 | 26 | 118 | 14.5 | 27.4 | 0.00 | 0.00 | 0.00 | 35 | 1014.6 |
| 20260505171545 | 25 | 190 | 14.5 | 27.4 | 0.00 | 0.00 | 0.00 | 36 | 1014.4 |
| 20260505170039 | 26 | 212 | 12.9 | 25.7 | 0.00 | 0.00 | 0.00 | 36 | 1014.7 |
| 20260505164539 | 25 | 150 | 8.0 | 20.9 | 0.00 | 0.00 | 0.00 | 39 | 1014.9 |
| 20260505163039 | 25 | 257 | 11.3 | 25.7 | 0.00 | 0.00 | 0.00 | 40 | 1015.0 |
| 20260505161537 | 25 | 226 | 6.4 | 17.7 | 0.00 | 0.00 | 0.00 | 43 | 1015.1 |
| 20260505153044 | 23 | 221 | 6.4 | 17.7 | 0.00 | 0.00 | 0.00 | 50 | 1015.5 |
| 20260505151534 | 22 | 156 | 4.8 | 12.9 | 0.00 | 0.00 | 0.00 | 52 | 1015.7 |
| 20260505124537 | 16 | 201 | 4.8 | 12.9 | 0.00 | 0.00 | 0.00 | 69 | 1015.4 |
| 20260505123047 | 15 | 162 | 4.8 | 14.5 | 0.00 | 0.00 | 0.00 | 71 | 1015.6 |
| 20260505121535 | 15 | 188 | 6.4 | 12.9 | 0.00 | 0.00 | 0.00 | 72 | 1015.6 |
| 20260505120050 | 14 | 170 | 6.4 | 12.9 | 0.00 | 0.00 | 0.00 | 74 | 1015.3 |
| 20260505114537 | 13 | 172 | 6.4 | 12.9 | 0.00 | 0.00 | 0.00 | 76 | 1015.2 |
| 20260505113035 | 13 | 171 | 3.2 | 9.7 | 0.00 | 0.00 | 0.00 | 78 | 1015.2 |
| 20260505111536 | 12 | 168 | 0.0 | 6.4 | 0.00 | 0.00 | 0.00 | 79 | 1015.0 |